Temp
80 79 80 80 82 82 82 82 82 79 76 76 76 75 76 76 75 75 75 73 71 71 72 75 74 76 75 75 74 74 73 72 72
79 79 81 81 84 84 84 82 82 79 77 77 77 76 77 76 76 75 75 72 73 73 72 75 75 75 76 75 75 74 73 73 72
78 81 81 82 84 84 83 83 82 81 80 78 78 78 78 77 77 76 77 73 72 71 72 73 75 73 75 74 75 75 74 73 72
79 80 81 82 83 86 85 84 82 81 80 79 79 78 78 78 77 76 77 75 74 74 73 73 74 73 73 74 75 75 74 73 74
82 83 83 85 84 86 85 84 82 81 80 79 80 79 79 78 77 76 75 75 75 75 74 73 73 72 73 74 76 75 75 75 76
79 81 82 84 84 85 85 85 83 81 80 80 81 80 79 78 77 76 75 75 76 74 75 75 72 74 73 73 75 75 75 76 76
77 81 83 82 84 86 86 85 84 82 80 81 81 80 78 77 76 76 77 76 76 75 75 75 74 74 76 75 75 76 76 76 76
75 83 83 82 84 86 86 84 84 83 82 81 81 79 77 77 77 77 77 76 76 76 75 77 77 76 75 76 77 78 76 76 76
74 82 83 84 85 87 86 85 84 84 82 81 80 79 77 78 77 77 76 76 76 75 75 75 76 75 76 74 78 73 71 76 77
72 82 84 84 86 87 87 86 86 84 82 82 80 79 78 78 77 75 75 76 76 74 74 75 74 75 76 76 77 69 69 70 79
64 68 74 82 87 88 88 88 86 86 83 81 79 78 78 78 77 76 76 76 76 76 75 74 74 75 75 76 77 67 66 68 76
65 66 68 70 72 76 79 84 85 82 80 81 78 78 78 78 78 77 76 75 76 77 77 76 75 76 76 75 77 65 64 66 75
65 68 68 70 73 73 74 72 84 81 80 80 78 78 79 79 79 78 77 77 77 78 78 78 78 77 77 73 77 66 62 64 76
64 66 67 69 70 69 69 70 77 79 80 80 82 79 78 78 79 79 79 78 79 78 78 78 77 77 78 78 75 76 61 60 76
63 63 65 67 66 67 69 71 74 71 71 72 76 77 78 79 79 79 80 78 78 78 77 76 76 76 77 78 79 65 61 59 61
59 60 62 64 64 65 67 69 71 72 71 71 72 72 73 73 77 80 82 78 78 77 77 77 76 76 76 77 77 78 60 58 58
57 58 60 61 63 63 64 66 68 70 72 72 72 71 70 71 71 71 73 77 79 77 77 76 77 76 75 76 76 75 73 67 65
56 57 57 58 59 59 61 62 65 67 71 71 70 70 71 70 71 70 70 71 69 75 77 74 77 77 76 75 73 74 69 70 72
55 56 56 56 57 58 60 61 62 64 67 69 68 68 68 68 69 70 70 67 62 48 48 48 47 50 63 73 63 59 55 54 54
55 56 56 56 56 57 60 61 62 62 64 65 66 66 66 68 66 69 69 66 66 65 55 46 45 44 46 47 58 51 50 49 48
MSLP
1000.95 1001.94 1002.43 1003.00 1003.47 1004.28 1005.23 1006.23 1007.26 1008.27 1009.33 1010.29 1011.15 1011.82 1012.51 1013.15 1013.76 1014.24 1014.67 1015.33 1015.92 1016.31 1016.57 1016.68 1016.53 1016.83 1017.04 1017.29 1017.64 1018.00 1018.20 1018.74 1018.99
1000.08 1000.66 1001.31 1001.62 1002.09 1002.79 1003.89 1004.96 1005.89 1006.96 1008.17 1009.24 1010.07 1010.85 1011.66 1012.43 1012.97 1013.51 1013.99 1014.54 1015.17 1015.65 1015.90 1016.12 1016.27 1016.29 1016.75 1016.85 1017.17 1017.53 1017.87 1018.37 1018.67
998.63 999.10 999.70 1000.79 1001.31 1001.67 1002.65 1003.57 1004.85 1006.09 1007.03 1008.02 1008.95 1009.93 1010.79 1011.45 1012.05 1012.67 1013.24 1013.87 1014.44 1014.91 1015.31 1015.65 1015.89 1016.12 1016.41 1016.69 1016.77 1016.93 1017.55 1017.96 1018.24
997.21 997.61 998.30 998.99 999.75 1000.52 1001.48 1003.01 1004.24 1005.12 1006.29 1007.20 1008.28 1009.11 1009.86 1010.76 1011.39 1011.98 1012.64 1013.14 1013.63 1014.13 1014.61 1015.03 1015.47 1015.75 1016.03 1016.30 1016.37 1016.62 1017.06 1017.38 1017.60
995.91 996.15 996.69 997.61 998.56 999.51 1000.69 1001.88 1003.15 1003.97 1005.17 1006.27 1007.18 1007.98 1008.87 1009.70 1010.45 1011.26 1011.96 1012.51 1012.95 1013.41 1013.80 1014.36 1014.85 1015.24 1015.57 1015.79 1015.90 1016.11 1016.38 1016.73 1016.85
995.52 995.57 995.89 996.46 997.85 998.95 999.60 1000.57 1001.79 1003.07 1004.31 1005.19 1006.15 1007.18 1008.03 1008.87 1009.61 1010.38 1010.99 1011.57 1012.17 1012.80 1013.23 1013.71 1014.23 1014.65 1014.94 1015.16 1015.29 1015.49 1015.69 1015.85 1016.07
994.99 995.02 995.22 995.70 996.53 997.43 998.40 999.28 1000.58 1002.09 1003.22 1004.20 1005.25 1006.29 1007.22 1007.97 1008.63 1009.31 1009.97 1010.61 1011.27 1011.85 1012.39 1013.09 1013.46 1013.76 1014.10 1014.31 1014.50 1014.71 1015.03 1015.19 1015.37
993.71 993.25 993.94 994.61 995.34 996.20 997.27 998.59 999.83 1001.14 1002.30 1003.46 1004.40 1005.46 1006.42 1006.94 1007.61 1008.43 1009.20 1009.73 1010.27 1010.83 1011.53 1011.91 1012.41 1012.84 1013.15 1013.39 1013.59 1013.85 1014.18 1014.36 1014.57
993.37 992.23 992.76 993.44 994.21 995.17 996.41 997.44 998.55 999.97 1001.37 1002.48 1003.57 1004.50 1005.11 1005.85 1006.97 1007.76 1008.26 1008.80 1009.41 1010.05 1010.59 1011.01 1011.57 1011.88 1012.09 1012.50 1012.55 1012.70 1012.97 1013.31 1013.72
994.09 992.59 992.63 992.83 993.49 994.42 995.50 996.65 997.83 998.99 1000.09 1001.45 1002.63 1003.43 1004.39 1005.37 1006.25 1006.92 1007.44 1008.04 1008.73 1009.27 1009.69 1010.20 1010.62 1010.88 1011.19 1011.36 1011.53 1011.74 1012.01 1012.41 1012.81
995.99 994.58 993.85 992.97 993.44 994.29 995.15 996.26 997.45 998.77 1000.09 1000.92 1001.94 1002.88 1003.69 1004.59 1005.35 1006.01 1006.77 1007.39 1007.83 1008.27 1008.75 1009.21 1009.54 1009.81 1010.10 1010.44 1010.47 1010.78 1011.21 1011.55 1012.09
998.13 996.65 995.21 994.90 994.82 995.15 995.86 996.62 997.50 998.77 999.89 1000.56 1001.60 1002.29 1002.88 1003.58 1004.27 1004.99 1005.80 1006.36 1006.72 1006.99 1007.70 1008.20 1008.42 1008.59 1009.01 1009.35 1009.53 1009.83 1010.21 1010.92 1011.30
999.21 997.81 996.83 996.41 996.29 996.40 996.75 997.29 997.43 998.54 999.48 1000.11 1000.61 1001.17 1001.61 1002.72 1003.65 1004.39 1004.87 1005.18 1005.71 1006.03 1006.71 1007.07 1007.42 1007.75 1007.97 1008.19 1008.48 1008.84 1009.29 1009.97 1010.31
1000.70 999.89 998.89 998.31 997.87 998.01 998.18 997.84 997.55 998.17 999.00 999.43 999.63 1000.65 1001.50 1002.28 1002.93 1003.50 1004.10 1004.72 1005.27 1005.63 1005.98 1006.38 1006.67 1006.83 1006.97 1007.23 1007.59 1007.90 1008.34 1008.92 1009.20
1002.19 1001.57 1000.73 1000.02 999.71 999.65 999.30 998.81 998.63 999.00 999.47 999.67 999.80 1000.18 1000.81 1001.37 1001.80 1002.47 1003.16 1003.68 1004.21 1004.73 1005.22 1005.61 1005.84 1006.08 1006.23 1006.27 1006.48 1006.93 1007.37 1007.82 1008.13
1003.62 1003.20 1002.55 1001.79 1001.13 1000.90 1000.44 999.97 999.81 999.76 1000.20 1000.07 1000.14 1000.35 1000.70 1001.03 1001.41 1001.77 1002.24 1002.88 1003.47 1004.09 1004.43 1004.71 1005.08 1005.29 1005.44 1005.50 1005.77 1006.05 1006.51 1006.89 1007.28
1004.75 1004.30 1003.57 1002.78 1002.12 1001.88 1001.83 1001.32 1000.99 1000.92 1000.83 1000.65 1000.54 1000.77 1001.01 1001.21 1001.55 1001.84 1002.11 1002.51 1003.04 1003.51 1003.76 1004.05 1004.31 1004.49 1004.65 1004.87 1005.07 1005.31 1005.79 1006.45 1006.71
1005.36 1005.07 1004.62 1003.99 1003.37 1002.78 1002.69 1002.41 1001.97 1001.59 1001.26 1001.12 1001.12 1001.15 1001.20 1001.31 1001.37 1001.67 1002.11 1002.59 1003.21 1003.23 1002.86 1003.21 1003.55 1003.56 1003.86 1004.09 1004.30 1004.47 1004.62 1005.04 1005.56
1005.74 1005.35 1004.97 1004.37 1003.88 1003.37 1003.09 1002.75 1002.23 1001.89 1001.63 1001.66 1001.67 1001.61 1001.45 1001.40 1001.45 1001.56 1001.79 1002.46 1003.34 1003.63 1003.58 1003.41 1003.25 1003.21 1003.25 1003.10 1003.21 1003.63 1004.00 1004.21 1004.47
1005.76 1005.64 1005.34 1004.82 1004.44 1003.96 1003.54 1003.26 1002.63 1002.20 1002.09 1002.19 1002.06 1002.04 1001.80 1001.49 1001.30 1001.33 1001.59 1002.14 1002.66 1003.27 1003.76 1003.61 1003.48 1003.33 1003.19 1003.29 1002.87 1003.31 1003.55 1003.80 1004.24
Wind_Speed
22 25 23 24 24 24 23 23 22 21 20 20 19 18 18 14 13 9 9 9 6 5 5 7 6 9 7 7 7 6 6 4 4
22 22 24 26 24 22 21 23 25 24 22 21 20 20 17 15 13 13 11 9 9 7 6 6 6 8 9 7 7 8 7 5 6
20 22 24 20 22 21 20 22 21 22 22 23 20 20 17 15 15 14 11 9 11 9 8 7 7 7 7 6 8 9 9 6 5
21 23 22 23 23 21 21 18 19 21 21 21 19 19 18 16 14 13 12 10 11 11 9 9 9 7 7 8 9 8 8 8 8
17 21 22 23 23 22 21 20 20 22 21 20 20 18 18 17 14 13 13 13 11 11 12 8 8 7 8 9 10 10 11 11 11
13 18 20 22 20 20 22 22 20 19 19 20 19 18 17 16 15 14 14 14 13 10 11 11 8 9 9 9 10 10 11 12 12
12 17 20 21 21 23 21 22 20 18 19 19 19 17 17 17 16 16 15 14 14 13 13 12 11 11 12 12 11 11 10 11 12
10 21 23 22 23 23 22 20 19 17 17 17 18 17 17 18 17 16 15 15 15 14 13 15 14 14 12 12 13 10 12 12 12
14 20 24 24 24 24 22 22 21 18 17 17 18 18 20 18 15 15 16 15 15 13 13 14 13 14 15 14 11 15 18 15 12
6 17 22 23 24 23 21 21 20 20 20 17 19 19 16 15 14 15 16 14 13 14 14 12 14 14 14 16 16 17 18 19 14
14 9 2 10 16 16 17 16 16 13 13 16 16 16 16 15 15 16 15 15 15 14 13 14 14 14 15 15 14 15 18 18 16
14 11 11 9 6 5 7 11 12 12 12 14 13 15 16 16 16 16 15 16 16 15 13 12 14 15 15 16 15 16 18 14 13
18 18 14 13 11 9 10 2 14 14 13 14 15 15 17 14 14 15 16 16 16 14 12 13 11 13 14 16 15 15 18 16 10
16 15 17 13 15 13 8 5 8 12 13 16 13 8 9 10 13 14 14 12 11 11 12 11 12 13 12 14 14 14 18 19 14
15 16 16 16 13 12 11 10 11 9 7 1 6 8 11 14 13 11 11 14 12 12 11 12 12 11 11 10 12 14 15 20 22
10 10 10 10 9 11 12 12 10 13 6 4 3 5 6 7 9 12 12 12 12 10 11 11 10 10 10 9 7 8 15 19 20
7 7 10 9 10 12 12 10 10 8 6 6 7 7 6 4 4 5 5 6 8 8 9 10 10 9 9 8 7 6 6 7 9
6 5 6 6 7 7 7 6 7 8 9 7 6 6 5 5 3 3 5 3 3 7 7 7 9 9 8 8 7 8 12 11 8
4 5 5 6 7 7 7 7 7 7 7 7 6 5 4 3 2 1 2 4 3 5 3 4 4 6 6 6 8 12 16 16 14
4 4 4 5 5 5 6 6 7 6 5 5 6 5 5 4 3 2 3 3 5 6 1 5 4 1 5 10 7 13 12 13 10
Wind_Direction
208 206 200 203 205 200 200 197 197 189 188 193 191 191 199 198 195 191 192 190 186 201 197 204 199 207 203 204 187 194 200 194 209
199 202 207 206 203 198 197 195 197 189 188 193 192 195 195 199 196 194 195 182 189 198 199 211 203 199 206 201 193 189 191 203 210
202 200 204 197 202 193 194 195 192 192 191 192 191 192 195 198 199 199 198 179 189 192 200 209 207 198 199 193 203 198 189 206 206
209 204 199 195 196 196 193 189 190 193 194 193 192 192 194 198 199 196 198 196 197 198 198 202 210 199 193 196 208 200 198 204 207
220 204 196 195 194 194 188 189 187 193 192 191 194 192 193 196 192 189 196 204 204 197 202 197 195 192 196 204 211 203 208 212 213
205 207 200 195 185 192 190 192 189 189 189 193 193 190 194 195 197 192 197 201 202 194 204 204 196 198 205 205 213 210 211 215 215
209 210 203 191 187 193 193 193 188 187 190 192 191 190 193 196 197 199 201 202 201 201 203 203 203 205 214 212 212 213 208 214 219
243 215 197 189 190 192 192 190 188 187 190 187 187 188 194 201 199 198 201 205 203 205 201 210 209 213 213 213 217 213 209 211 216
223 199 188 188 191 189 188 188 188 185 185 186 185 192 198 200 195 196 204 206 206 203 205 208 207 211 215 215 221 218 208 210 215
284 200 190 184 184 185 187 190 185 188 185 181 189 194 196 197 196 200 204 204 204 206 206 202 208 214 214 220 223 218 212 211 225
6 24 357 188 184 185 190 185 188 183 177 188 188 189 193 191 195 199 200 202 206 208 204 205 206 213 216 220 227 208 212 213 223
6 19 44 50 55 105 133 170 167 167 175 175 179 192 195 197 196 199 196 202 205 209 207 206 211 215 214 217 226 210 207 199 221
0 18 32 41 57 75 81 95 160 161 171 175 188 191 197 194 196 202 201 204 206 208 208 215 214 219 219 219 225 211 203 198 217
6 14 23 23 47 54 33 28 144 166 170 190 195 172 168 179 193 201 203 204 204 206 208 212 216 221 221 223 215 223 200 200 217
12 8 12 22 37 37 28 28 74 80 83 50 180 166 176 191 193 189 196 196 199 203 200 209 216 219 226 225 223 212 204 203 212
2 0 -0 12 33 32 26 26 32 59 26 65 86 139 177 185 196 206 203 197 200 199 203 210 214 219 225 228 219 219 206 204 213
11 358 359 353 20 34 25 14 22 29 23 35 70 77 71 100 171 191 194 200 200 200 202 209 216 216 221 222 218 203 185 207 218
356 3 356 358 4 11 10 5 16 9 11 16 35 51 57 50 51 155 187 167 205 213 210 212 207 216 209 205 212 205 196 197 204
314 1 349 4 358 1 347 353 360 355 2 5 3 2 6 16 37 333 230 179 193 54 342 328 312 274 226 210 222 181 202 209 210
304 329 351 5 334 327 335 338 347 342 356 341 333 327 325 319 322 285 196 193 199 224 95 67 69 337 252 236 223 202 210 211 217